TimeEDT,TemperatureF,Dew PointF,Humidity,Sea Level PressureIn,VisibilityMPH,Wind Direction,Wind SpeedMPH,Gust SpeedMPH,PrecipitationIn,Events,Conditions,WindDirDegrees,DateUTC
12:56 AM,60.1,57.9,93,30.00,8.0,North,3.5,-,N/A,,Clear,360,2013-10-03 04:56:00
1:18 AM,60.8,57.2,88,30.01,2.0,Calm,Calm,-,N/A,,Clear,0,2013-10-03 05:18:00
1:27 AM,57.2,57.2,100,30.02,5.0,Calm,Calm,-,N/A,,Clear,0,2013-10-03 05:27:00
1:56 AM,57.9,55.9,93,30.02,9.0,Calm,Calm,-,N/A,,Clear,0,2013-10-03 05:56:00
2:33 AM,55.4,53.6,94,30.02,1.5,Calm,Calm,-,N/A,,Clear,0,2013-10-03 06:33:00
2:46 AM,55.4,55.4,100,30.02,3.0,Calm,Calm,-,N/A,,Clear,0,2013-10-03 06:46:00
2:56 AM,54.0,54.0,100,30.02,7.0,West,5.8,-,N/A,,Clear,270,2013-10-03 06:56:00
3:56 AM,53.1,52.0,96,30.04,8.0,Calm,Calm,-,N/A,,Clear,0,2013-10-03 07:56:00
4:13 AM,51.8,51.8,100,30.04,1.8,Calm,Calm,-,N/A,,Clear,0,2013-10-03 08:13:00
4:24 AM,53.6,51.8,94,30.04,0.8,Calm,Calm,-,N/A,,Clear,0,2013-10-03 08:24:00
4:29 AM,53.6,53.6,100,30.04,2.0,WNW,3.5,-,N/A,,Clear,300,2013-10-03 08:29:00
4:36 AM,51.8,51.8,100,30.03,7.0,NNW,3.5,-,N/A,,Clear,330,2013-10-03 08:36:00
4:56 AM,52.0,51.1,97,30.04,6.0,Calm,Calm,-,N/A,,Clear,0,2013-10-03 08:56:00
5:56 AM,52.0,50.0,93,30.04,9.0,NE,4.6,-,N/A,,Clear,40,2013-10-03 09:56:00
6:56 AM,50.0,48.0,93,30.06,8.0,Calm,Calm,-,N/A,,Clear,0,2013-10-03 10:56:00
7:56 AM,57.9,53.1,84,30.08,9.0,North,3.5,-,N/A,,Clear,350,2013-10-03 11:56:00
8:56 AM,64.9,54.0,68,30.09,10.0,Variable,3.5,-,N/A,,Clear,0,2013-10-03 12:56:00
9:56 AM,69.1,52.0,54,30.10,10.0,North,4.6,-,N/A,,Clear,360,2013-10-03 13:56:00
10:56 AM,73.9,48.9,41,30.09,10.0,NNW,9.2,-,N/A,,Clear,330,2013-10-03 14:56:00
11:56 AM,75.0,48.9,40,30.09,10.0,Calm,Calm,-,N/A,,Clear,0,2013-10-03 15:56:00
12:56 PM,73.0,55.9,55,30.07,10.0,SW,9.2,-,N/A,,Clear,220,2013-10-03 16:56:00
1:56 PM,72.0,55.9,57,30.05,10.0,SW,8.1,-,N/A,,Clear,220,2013-10-03 17:56:00
2:56 PM,72.0,55.0,55,30.04,10.0,SW,11.5,-,N/A,,Clear,230,2013-10-03 18:56:00
3:56 PM,71.1,55.9,59,30.04,10.0,WSW,10.4,-,N/A,,Clear,240,2013-10-03 19:56:00
4:56 PM,70.0,57.9,65,30.04,10.0,WSW,9.2,-,N/A,,Clear,240,2013-10-03 20:56:00
5:56 PM,69.1,55.9,63,30.04,10.0,West,3.5,-,N/A,,Clear,260,2013-10-03 21:56:00
6:56 PM,66.0,59.0,78,30.05,10.0,SW,4.6,-,N/A,,Clear,220,2013-10-03 22:56:00
7:56 PM,64.9,60.1,84,30.05,10.0,WSW,4.6,-,N/A,,Clear,240,2013-10-03 23:56:00
8:56 PM,63.0,57.9,84,30.06,10.0,Calm,Calm,-,N/A,,Clear,0,2013-10-04 00:56:00
9:56 PM,60.1,57.0,90,30.08,10.0,Calm,Calm,-,N/A,,Clear,0,2013-10-04 01:56:00
10:56 PM,57.9,55.9,93,30.09,9.0,Calm,Calm,-,N/A,,Clear,0,2013-10-04 02:56:00